Regional Weather Roundup
Issued by NWS

Home | Current Version | Previous Version | Graphics & Text | Print | Product List | Glossary On
Versions: 1 2 3 4 5 6 7 8 9 10 11 12 13 14 15 16 17 18 19 20 21 22 23 24 25 26 27 28 29 30 31 32 33 34 35 36 37 38 39 40 41 42 43 44 45 46 47 48 49 50
000
ASUS43 KMPX 170110
RWRMN
WEATHER ROUNDUP FOR MINNESOTA
NATIONAL WEATHER SERVICE TWIN CITIES/CHANHASSEN MN
700 PM CST SAT DEC 16 2017


NOTE: "FAIR" INDICATES FEW OR NO CLOUDS BELOW 12,000 FEET WITH NO
SIGNIFICANT WEATHER AND/OR OBSTRUCTIONS TO VISIBILITY. N/A MEANS
CURRENT SKY AND/OR WEATHER CONDITIONS ARE NOT AVAILABLE.

MNZ060>063-068>070-170200-
   Twin Cities Metro

CITY           SKY/WX    TMP DP  RH WIND       PRES   REMARKS
TWIN CITIES    CLOUDY    26  20  77 E7        30.06R WCI  18
ST PAUL        CLOUDY    25  18  74 E3        30.08R
CRYSTAL        CLOUDY    27  18  69 E6        30.05R WCI  20
BLAINE         CLOUDY    27  21  80 NE3       30.05R
LAKEVILLE      CLOUDY    21  19  93 CALM      30.04R
EDEN PRAIRIE   CLOUDY    28  21  75 E6        30.04R WCI  22
SOUTH ST PAUL  CLOUDY    25  19  78 CALM      30.06R
LAKE ELMO      CLOUDY    25  19  80 CALM      30.07R
$$
MNZ001>005-007-008-013>017-022>024-027-028-170200-
   Northwest Minnesota

CITY           SKY/WX    TMP DP  RH WIND       PRES   REMARKS
BEMIDJI        CLOUDY    24  22  92 CALM      30.00R
HALLOCK        CLOUDY    12  10  92 CALM      30.00R
ROSEAU         HAZE      18  12  79 CALM      29.99S VSB 1
WARROAD        CLOUDY    18  12  79 CALM      29.99S
THIEF RVR FALL FOG       21  19  93 SW5       30.03R VSB 1/2 WCI  15
CROOKSTON      FOG       19  18  93 CALM      30.04R VSB 1/4
FOSSTON        CLOUDY    23  21  93 W3        30.01R
DETROIT LAKES  CLOUDY    28  27  93 NW9       30.02R WCI  20
MOORHEAD       CLOUDY    21  21 100 CALM      30.05R FOG
PARK RAPIDS    CLOUDY    25  21  85 S7        30.00R WCI  17
MAHNOMEN       CLOUDY    26  24  91 NW9       30.01R WCI  17
$$
MNZ006-009>011-018-025>026-170200-
   North Central Minnesota

CITY           SKY/WX    TMP DP  RH WIND       PRES   REMARKS
BAUDETTE       CLOUDY    13  11  92 SE6       29.99R WCI   4
FLAG ISLAND    CLOUDY    10   9  92 S8        29.99R FOG     WCI  -1
INTL FALLS     CLOUDY    13  10  88 SE6       30.02R FOG     WCI   4
WASKISH        CLOUDY    21  19  93 S5        30.00R WCI  15
BIG FORK       CLOUDY    21  18  86 CALM      30.01R
LONGVILLE      CLOUDY    21  16  79 S3        30.02R
GRAND RAPIDS   CLOUDY    21  14  74 S7        30.04R WCI  12
CRANE LAKE     CLOUDY    14  12  92 CALM      30.06R
ORR            CLOUDY    18  12  79 CALM      30.00R
COOK           CLOUDY    19  18  93 SE5       30.02R WCI  13
WALKER         CLOUDY    22  19  85 S3        30.00S
$$
MNZ012-019>021-037-170200-
   Northeast Minnesota

CITY           SKY/WX    TMP DP  RH WIND       PRES   REMARKS
DULUTH         CLOUDY    20  15  81 SE10      30.04R WCI   9
ELY            CLOUDY    19  16  86 S6        30.02R WCI  11
HIBBING        CLOUDY    20  15  81 S6        30.02R WCI  12
EVELETH        CLOUDY    20  13  73 SE6       30.03S WCI  12
DULUTH HARBOR  CLOUDY    23  16  74 SE3       30.11R
TWO HARBORS    CLOUDY    27  19  74 E3        30.05R
GRAND MARAIS     N/A     23  17  78 NE6       30.12R WCI  16
G MARAIS ARPRT CLOUDY    16  10  79 E3        30.04R
$$
MNZ029>031-032-039>041-046>048-054>057-064-170200-
   West Central Minnesota

CITY           SKY/WX    TMP DP  RH WIND       PRES   REMARKS
FERGUS FALLS   CLOUDY    27  27 100 CALM      30.05R
WHEATON        PTCLDY    30  27  86 E5        30.06R WCI  25
MORRIS         CLOUDY    30  28  93 CALM      30.03R FOG
ALEXANDRIA     CLOUDY    28  25  88 SE3       30.03R
ELBOW LAKE     FAIR      27  26  95 E3        30.03R FOG
WADENA         CLOUDY    25  21  86 CALM      30.01R
GLENWOOD       CLOUDY    27  25  93 CALM      30.04R
APPLETON       CLOUDY    30  27  86 CALM      30.04R
BENSON         CLOUDY    30  27  86 CALM      30.06R
ORTONVILLE     MOCLDY    30  27  86 CALM      30.03R
MADISON        CLOUDY    30  28  93 NE5       30.04R WCI  25
WILLMAR        CLOUDY    28  27  93 E6        30.05R WCI  22
$$
MNZ033>034-036-042>043-049>051-058-059-170200-
   Central Minnesota

CITY           SKY/WX    TMP DP  RH WIND       PRES   REMARKS
ST CLOUD       CLOUDY    24  20  84 CALM      30.05R
SAUK CENTRE    CLOUDY    25  23  93 E3        30.04R FOG
PAYNESVILLE    CLOUDY    26  25  96 CALM      30.05R FOG
AITKIN         CLOUDY    19  16  86 SE3       30.02R
PINE RIVER     CLOUDY    21  16  79 CALM      30.06R
BRAINERD       CLOUDY    22  17  81 CALM      30.04R
STAPLES        CLOUDY    23  19  86 CALM      30.02S
LITTLE FALLS   CLOUDY    27  19  74 CALM      30.05R
LITCHFIELD     PTCLDY    27  25  93 CALM      30.05R
BUFFALO        CLOUDY    26  22  84 N3        30.06R
MAPLE LAKE     CLOUDY    26  24  89 NE3       30.06R
HUTCHINSON     CLOUDY    28  25  87 N7        30.05R WCI  21
$$
MNZ037-044-045-052-053-170200-
   East Central Minnesota

CITY           SKY/WX    TMP DP  RH WIND       PRES   REMARKS
PRINCETON      CLOUDY    25  19  80 NE3       30.05R
MORA           CLOUDY    21  16  79 CALM      30.07R
CAMBRIDGE      PTCLDY    25  16  68 NE3       30.07R
RUSH CITY      CLOUDY    22  16  78 NE5       30.07R WCI  16
MOOSE LAKE     CLOUDY    21  14  73 CALM      30.04R
HINCKLEY       CLOUDY    23  18  80 E3        30.07R
CLOQUET        CLOUDY    19  10  68 E6        30.04S WCI  11
MCGREGOR       CLOUDY    23  16  74 SE3       30.04S
$$
MNZ071>073-080-081-089-090-097-098-170200-
   Southwest Minnesota

CITY           SKY/WX    TMP DP  RH WIND       PRES   REMARKS
MONTEVIDEO     CLOUDY    28  25  86 E3        30.04R
GRANITE FALLS  MOCLDY    29  26  88 NE6       30.05R WCI  23
CANBY          CLOUDY    32  29  89 N6        30.04R WCI  26
MARSHALL       CLOUDY    30  27  88 NE6       30.03R WCI  24
REDWOOD FALLS  CLOUDY    29  25  85 NE5       30.03R WCI  24
OLIVIA         CLOUDY    30  28  93 NE7       30.04R WCI  23
PIPESTONE      CLOUDY    30  27  86 NE5       29.99R WCI  25
WINDOM           N/A     28  18  64 NE6       30.00R HAZE    WCI  22
WORTHINGTON    CLOUDY    30  27  88 N7        30.00R WCI  23
JACKSON        MOCLDY    28  25  86 NE5       30.00R WCI  23
TRACY          CLOUDY    30  28  93 NE6       30.01R WCI  24
SLAYTON        CLOUDY    31  29  91 N5        30.01R WCI  26
$$
MNZ065>067-074>077-082>085-091>093-170200-
   South Central Minnesota

CITY           SKY/WX    TMP DP  RH WIND       PRES   REMARKS
MANKATO        CLOUDY    29  26  89 NE9       30.03R WCI  20
NEW ULM        CLOUDY    28  25  86 NE3       30.03R
ST JAMES       CLEAR     27  25  93 N6        30.03R WCI  20
FAIRMONT       CLOUDY    30  27  88 N8        30.01R WCI  22
GLENCOE        CLOUDY    29  29 100 NE3       30.04R
FARIBAULT      CLOUDY    28  25  86 NE3       30.03R
OWATONNA       CLOUDY    28  27  93 NE9       30.01S WCI  20
WASECA         CLOUDY    30  28  93 NE8       30.03R WCI  23
ALBERT LEA     PTCLDY    30  27  86 NE9       29.98R WCI  22
$$
MNZ078>079-086>088-094>096-170200-
   Southeast Minnesota

CITY           SKY/WX    TMP DP  RH WIND       PRES   REMARKS
ROCHESTER      PTCLDY    25  23  92 NE7       30.01R WCI  17
RED WING       CLOUDY    25  16  68 CALM      30.05R
STANTON        CLOUDY    28  23  84 NE3       30.03R
DODGE CENTER   MOCLDY    27  25  93 NE10      30.00S WCI  17
WINONA         CLOUDY    28  23  80 E5        30.07R WCI  23
AUSTIN         PTCLDY    28  27  93 NE8       29.99R WCI  20
PRESTON        PTCLDY    26  22  84 NE8       30.00R WCI  18
$$
ABBREVIATIONS USED IN REMARKS
   TC - TEMPERATURES IN CELSIUS
  WCI - WIND CHILL INDEX
   HX - HEAT INDEX
  VSB - VISIBILITY
$$




USA.gov is the U.S. government's official web portal to all federal, state and local government web resources and services.